Regional Weather Roundup
Issued by NWS Wakefield, VA

Home | Current Version | Previous Version | Graphics & Text | Print | Product List | Glossary On
Versions: 1 2 3 4 5 6 7 8 9 10 11 12 13 14 15 16 17 18 19 20 21 22 23 24 25 26 27 28 29 30 31 32 33 34 35 36 37 38 39 40 41 42 43 44 45 46 47 48 49 50
715
ASUS41 KAKQ 251115
RWRAKQ

REGIONAL WEATHER ROUNDUP
NATIONAL WEATHER SERVICE WAKEFIELD VA
700 AM EDT WED MAY 25 2016

Note: "fair" indicates few or no clouds below 12,000 feet with no
significant weather and/or obstructions to visibility. * = Denotes
station may not report precipitation (e.g., rain,snow,etc.),
thunder or fog.

VAZ042-051-052>054-056-251200-
NORTHERN VIRGINIA

CITY           SKY/WX    TMP DP  RH WIND       PRES   REMARKS
WASH NATIONAL  FAIR      62  59  90 S3        30.14R
DULLES         FAIR      56  53  90 CALM      30.15R
FORT BELVOIR   FAIR      54  53  96 CALM      30.14R
QUANTICO       FAIR      60  54  80 NW5       30.15R
FREDERICKSBRG* FAIR      57  57 100 CALM      30.14R
STAFFORD*      FAIR      57  53  85 CALM      30.19R
WARRENTON      FAIR      57  52  84 CALM      30.15R
CULPEPER*      FAIR      54  54 100 CALM      30.17R FOG
MANASSAS*      SUNNY     54  54 100 CALM      30.15R
LEESBURG*      FAIR      61  55  82 CALM      30.15R
WINCHESTER     FAIR      61  52  72 SW6       30.17R
FRONT ROYAL*   FAIR      57  52  82 S8        30.17R
LURAY*         FAIR      52  52 100 CALM      30.21R
$$

VAZ048-049-060>072-079>083-251200-
CENTRAL AND SOUTH CENTRAL VIRGINIA

CITY           SKY/WX    TMP DP  RH WIND       PRES   REMARKS
RICHMOND       FAIR      63  55  75 W5        30.16R
CHESTERFIELD*  FAIR      61  46  59 CALM      30.18R
PETERSBURG*    LGT RAIN  59  59 100 CALM      30.17R
HANOVER        FAIR      60  55  83 CALM      30.17R
TAPPAHANNOCK*  FAIR      58  58 100 CALM      30.15R
QUINTON*       FAIR      57  56  97 CALM      30.15R
CHARLOTTSVILLE FAIR      58  52  80 CALM      30.18R
GORDONSVILLE*  FAIR      56  54  94 SW3       30.16R
ORANGE*        FAIR      59  54  82 CALM      30.18R
LOUISA*        FAIR      59  57  94 CALM      30.15R
BUMPASS*       FAIR      56  55  95 CALM      30.16R
FARMVILLE*     FAIR      56  56 100 CALM      30.17R
CREWE*         FAIR      56  56 100 CALM      30.17R
FORT PICKETT*  NOT AVBL
CHASE CITY*    FAIR      58  56  94 CALM      30.19R
CLARKSVILLE*   FAIR      57  57 100 CALM      30.19R
SOUTH HILL*    FAIR      56  55  95 CALM      30.23R
LAWRENCEVILLE* FAIR      57  56  95 CALM      30.17R
EMPORIA*       FAIR      55  55 100 CALM      30.18S
$$

VAZ088>098-251200-
SOUTHEAST VIRGINIA

CITY           SKY/WX    TMP DP  RH WIND       PRES   REMARKS
NORFOLK        FAIR      67  55  65 SW9       30.14R
VIRGINIA BEACH FAIR      68  56  65 SW8       30.14R
NORFOLK NAVAL  FAIR      67  57  70 SW6       30.16R
WEST POINT*    FAIR      58  58  97 CALM      30.17R
SALUDA*        FAIR      63  59  87 CALM      30.14R
NEWPORT NEWS   FAIR      65  58  78 W6        30.15R
LANGLEY AFB    FAIR      65  58  77 SW7       30.15R
FORT EUSTIS    FAIR      64  55  74 W6        30.14R
WILLIAMSBURG*  FAIR      61  59  94 CALM      30.17R
HR EXEC AP*    FAIR      63  57  82 CALM      30.18R
FRANKLIN*      FAIR      62  56  79 SW5       30.17R
US460-WAKEFLD  FAIR      61  56  83 CALM      30.16R
$$

VAZ020-022-025-037-045-251200-
WEST CENTRAL AND SOUTHWEST VIRGINIA

CITY           SKY/WX    TMP DP  RH WIND       PRES   REMARKS
STAUNTON*      FAIR      49  48  95 CALM      30.25R
WAYNESBORO*    FAIR      52  49  89 CALM      30.22R
HOT SPRINGS VA FAIR      58  47  66 W6        30.28R
LYNCHBURG      FAIR      54  52  93 CALM      30.22R
DANVILLE       FAIR      56  55  97 CALM      30.20R
SOUTH BOSTON*  FAIR      55  54  95 CALM      30.20R
MARTINSVILLE   FAIR      47  47 100 CALM      30.24R
ROANOKE        FAIR      55  52  89 VRB3      30.24R
BLACKSBURG     FAIR      51  50  97 CALM      30.29S
DUBLIN*        FAIR      51  51  99 CALM      30.27R
MARION*        FAIR      49  46  92 CALM      30.30R
HILLSVILLE*    FAIR      53  49  86 SW5       30.27R
RICHLANDS*     FAIR      54  44  68 CALM      30.27R
WISE*          FAIR      55  43  62 S5        30.27R
ABINGDON*      FAIR      53  50  89 CALM      30.26R
$$

MDZ021>025-VAZ099-100-251200-
SOUTHERN MARYLAND AND THE DELMARVA PENINSULA

CITY           SKY/WX    TMP DP  RH WIND       PRES   REMARKS
PATUXENT RIVER MOSUNNY   62  56  80 W5        30.13R
BAY BRIDGE APT SUNNY     64  54  68 CALM      30.12R
LEONARDTOWN    SUNNY     59  54  82 W3        30.15R
DOVER          SUNNY     61  57  84 SW5       30.10R
GEORGETOWN     SUNNY     64  55  72 CALM      30.12R
EASTON         SUNNY     61  61 100 CALM      30.16R
CAMBRIDGE        N/A     55  54  94 CALM      30.12R
SALISBURY      SUNNY     61  58  90 CALM      30.12R
OCEAN CITY     SUNNY     65  56  72 W8        30.12R
WALLOPS ISLAND FAIR      67  60  78 W8        30.13R
ACCOMACK*      FAIR      64  57  77 W3        30.14R
$$

NCZ012>017-030>032-251200-
NORTH CENTRAL AND EASTERN NORTH CAROLINA

CITY           SKY/WX    TMP DP  RH WIND       PRES   REMARKS
ROANOKE RAPIDS FAIR      59  55  88 SW3       30.17S
RALEIGH        PTCLDY    61  57  87 CALM      30.21R
ELIZABETH CITY MOSUNNY   64  59  83 SW8       30.17R
AHOSKIE*       SUNNY     57  55  92 CALM      30.18R
EDENTON*       SUNNY    N/A N/A N/A W8        30.19R
CURRITUCK*     MOSUNNY   64  58  81 SW6       30.18R
KILL DEVIL HLS SUNNY     67  60  79 W3        30.17R
MANTEO         SUNNY     65  61  87 W3        30.19R
CAPE HATTERAS  SUNNY     68  62  81 W7        30.20R
TARBORO*       FAIR      58  57  95 CALM      30.19R
GOLDSBORO      SUNNY     63  63 100 SW3       30.18R
WASHINGTON     SUNNY     61  57  88 SW3       30.19R FOG
GREENVILLE     SUNNY     61  59  94 SW3       30.20R FOG
NEW BERN       SUNNY     61  57  87 SW6       30.22R
WILMINGTON     CLEAR     62  59  90 CALM      30.21R
$$

VAZ048-251200-
ELSEWHERE

CITY           SKY/WX    TMP DP  RH WIND       PRES   REMARKS
HARRISBURG PA  MOSUNNY   61  51  70 W5        30.11R
BALTIMORE      MOSUNNY   63  52  67 W5        30.12R
ANNAPOLIS      SUNNY     65  54  67 CALM      30.12R
ANDREWS AFB    FAIR      63  55  75 W3        30.13R
PHILADELPHIA   MOSUNNY   61  52  72 SW6       30.10R
HENDERSON NC   SUNNY     59  54  84 SW5       30.19R
GREENSBORO     PTCLDY    61  55  81 CALM      30.21R
ROCKY MOUNT    MOSUNNY   59  58  96 CALM      30.19R
$$

VAZ100-251200-
MARINE

STATION/POSITION TIME  TEMP    WIND        PRES    WAVE   SWELL
                       AIR SEA DIR/SP/G            HT/PER HT/PER
                 (UTC) (F)     (DEG/KT/KT) (MB)    (FT/S) (FT/S)
BRANDYWINE LGT   1000   64     260/ 14/ 14 1018.8R
CAPE MAY NJ      1000   62 64  260/  4/  5 1018.6R
LEWES DE         1000   66 59  260/  7/  9 1018.8R
15NM E FENWICK I 1050   60 56              1019.4R   2/10
OCEAN-CITY-INLET 1000   65 60  300/  8/ 10 1018.4R
WACHAPREAGUE VA  1000   64 69  260/  4/  6 1019.4R
THOMAS POINT MD  1100   67 63  290/ 13/ 14 1021.1R
GOOSES REEF MD   1100   67 63  280/  6/  6 1021.0R   1
COVE POINT MD    1000   69     320/  9/ 13 1020.0R
SOLOMONS ISLAND  1000   61 63  300/  2/  3   N/A
BISHOPS HEAD MD  1000   65 67  260/  6/  6 1019.7R
PINEY POINT MD   1000          300/  3/  3   N/A
POTOMAC MD       1100   65 63  270/  6/  6 1019.5R   0
CAMBRIDGE MD     1000   65 64   CALM  /  1 1018.6R
LEWISETTA VA     1000   64 66  230/  3/  3 1019.5R
RAPPAHANNOCK LGT 1000          230/  6/  7 1020.5R
STINGRAY PT      1100   66 65  270/  6/  6 1021.0R   0
YORK RVR RNG VA  1000   67     260/ 11/ 12 1019.7R
YORKTOWN VA      1000   66 66  230/  7/  9 1020.0R
JAMESTOWN VA     1100   65 67  270/  4/  6   N/A     0
DOMINION TERM VA 1000   68     250/  9/ 11 1020.5R
KIPTOPEKE VA     1000      64  240/  6/  8   N/A
CHES BAY BRIDGE  1000   68 65  210/  9/ 10 1020.2R
CAPE HENRY VA    1000   67     220/  9/ 14   N/A
CHESAPEAKE LGHT  1000   67     250/ 16/ 17 1020.8R
WILLOUBY STN VA  1000   67     230/  9/ 10 1021.2R
CAPE HENRY BUOY  1012      61                N/A     2/ 8
1ST LANDING BUOY 1100   67 65  230/  8/ 10 1020.8R   1/ 4
CAPE CHARLES BUO 1026      61                N/A     2/10   2/10
OFFSHORE WE BUOY 1021      59                N/A     2/ 9   2/ 9
64NM E OF VA BCH 1050   61 56  240/  8/ 10 1020.8R   3/ 5   2/ 5
DUCK PIER NC     1000   67 61  250/  9/ 12 1020.5R
44100 DUCK FRF   1024      62                N/A     2/ 9
44056 DUCK FRF   1011      61                N/A     2/10
OREGON INLET NC  1000   67 69  250/  8/ 12 1021.2R
HATTERAS NC      1000   69 68  270/ 12/ 13 1021.5R
DIAMOND SHLS NC  1050   67 67  280/  8/ 10 1022.7R   3/ 5   3/ 5
CAPE LOOKOUT NC1F1C2F2C3F3C4F4C5F5C6F6C7F7C8M1C9!



USA.gov is the U.S. government's official web portal to all federal, state and local government web resources and services.